Regional Weather Roundup
Issued by NWS

Home | Current Version | Previous Version | Graphics & Text | Print | Product List | Glossary On
Versions: 1 2 3 4 5 6 7 8 9 10 11 12 13 14 15 16 17 18 19 20 21 22 23 24 25 26 27 28 29 30 31 32 33 34 35 36 37 38 39 40 41 42 43 44 45 46 47 48 49 50
000
ASUS43 KLMK 241010
RWRKY
KENTUCKY REGIONAL WEATHER ROUNDUP
NATIONAL WEATHER SERVICE LOUISVILLE KY
600 AM EDT FRI MAR 24 2017

NOTE "FAIR" INDICATES FEW OR NO CLOUDS BELOW 12,000 FEET
WITH NO SIGNIFICANT WEATHER AND/OR OBSTRUCTIONS TO VISIBILITY.

KYZ001>023-026-027-061>063-070>075-241100-
WESTERN AND SOUTH CENTRAL KENTUCKY

CITY           SKY/WX    TMP DP  RH WIND       PRES   REMARKS
PADUCAH        CLEAR     64  53  67 S12       30.06R
HENDERSON      CLEAR     57  46  67 S12       30.06R
OWENSBORO      CLEAR     57  48  72 S17       30.10F
HOPKINSVILLE   CLEAR     61  51  71 S13G22    30.14S
BOWLING GREEN  CLEAR     59  44  57 S16G23    30.19S
GLASGOW        CLEAR     56  41  57 S12G17    30.20R
$$

KYZ024-025-028>034-038-045-046-053-241100-
NORTH CENTRAL KENTUCKY

CITY           SKY/WX    TMP DP  RH WIND       PRES   REMARKS
LOUISVILLE/SDF PTCLDY    58  39  49 S14       30.14R
LOUISVILLE/LOU CLEAR     58  40  51 S8G18     30.15R
FORT KNOX      CLEAR     56  42  59 S17G24    30.13S
$$

KYZ035>037-039>044-047>052-055>060-089>105-241100-
NORTHEAST KENTUCKY

CITY           SKY/WX    TMP DP  RH WIND       PRES   REMARKS
LEXINGTON      CLEAR     54  38  54 S14       30.19S
COVINGTON      PTCLDY    52  40  63 S12       30.13R
FRANKFORT      CLEAR     55  39  54 S8        30.17R
$$

KYZ054-064>069-076>088-106>120-241100-
SOUTHEAST KENTUCKY

CITY           SKY/WX    TMP DP  RH WIND       PRES   REMARKS
JACKSON        CLEAR     53  37  54 SW5       30.24F
LONDON         CLEAR     55  37  50 S12       30.26S
SOMERSET       CLEAR     54  36  50 S7        30.26R
MIDDLESBORO    CLEAR     51  37  57 CALM      30.33S
MONTICELLO     SUNNY     56  40  55 SE8       30.26R
$$





USA.gov is the U.S. government's official web portal to all federal, state and local government web resources and services.